Location: Demmingen
(48.6757°N, 10.4375°E)
Time: 03:42:36
(UTC+00:00)

Geosat - Pass Details

Date: 23 May 2024
Orbit: 760 x 763 km, 108.1° (Epoch: 19 June)

Event Time Altitude Azimuth Distance (km) Brightness Sun altitude
Rises 02:24:04 0° 150° (SSE) 3,211 7.1 -8.9°
Reaches altitude 10° 02:26:20 10° 151° (SSE) 2,290 6.3 -8.6°
Maximum altitude 02:31:20 86° 239° (WSW) 771 4.0 -8.0°
Drops below altitude 10° 02:36:22 10° 330° (NNW) 2,308 6.7 -7.4°
Sets 02:38:40 0° 331° (NNW) 3,238 7.4 -7.2°
